Flag for Canada Weather past 2 weeks in Québec, Quebec, Canada

Now
16 °F

Low level haze.


Feels Like: 1 °F
Forecast: N/A
Wind: 14 mph from West

Location: Quebec Weather Station

Current Time: Feb 28, 2015 at 6:22:14 PM

Latest Report: Feb 28, 2015 at 5:00 PM


Visibility: 30 mi

Pressure: 30.59 "Hg

Humidity: 57%

Dew point: 3 °F

Location of QuébecLocation

Historic Weather in Québec — Graph

°F

Québec temperature yesterday

Maximum temperature yesterday: 10 °F (at 2:00 PM)
Minimum temperature yesterday: -17 °F (at 6:00 AM)
Average temperature yesterday: -1 °F

Past Weeks' High & Low Weather Summary

 TemperatureHumidityPressure
High23 °F (Feb 22, 2:00 PM)93% (Feb 23, 2:00 AM)30.65 "Hg (Feb 23, 2:00 AM)
Low-20 °F (Feb 24, 7:00 AM)37% (Feb 16, 3:00 PM)29.52 "Hg (Feb 20, 3:00 AM)
Average4 °F64%30.01 "Hg
* Reported Feb 13 5:00 PM — Feb 28 5:00 PM, Québec, Weather by CustomWeather, © 2015

Note: Actual official high and low records may vary slightly from our data, if they occured in-between our weather recording intervals... More about our weather records

Advertising

Québec weather history for previous 24 hours

 ConditionsComfort  
Time TempWeatherWind HumidityBarometerVisibility
5:00 PM
Sat, Feb 28
16 °FLow level haze.14 mph57%30.59 "Hg30 mi
4:00 PM18 °FLow level haze.17 mph53%30.58 "Hg30 mi
3:00 PM18 °FLow level haze.23 mph53%30.58 "Hg30 mi
2:00 PM16 °FPassing clouds.21 mph57%30.59 "Hg30 mi
1:00 PM16 °FPassing clouds.20 mph57%30.60 "Hg30 mi
12:00 PM14 °FPassing clouds.17 mph57%30.63 "Hg30 mi
11:00 AM10 °FPassing clouds.15 mph61%30.64 "Hg30 mi
10:00 AM7 °FPassing clouds.18 mph61%30.65 "Hg30 mi
9:00 AM3 °FPassing clouds.15 mph72%30.65 "Hg30 mi
8:00 AM1 °FPassing clouds.10 mph71%30.63 "Hg30 mi
7:00 AM-4 °FPassing clouds.8 mph77%30.61 "Hg30 mi
6:00 AM-4 °FClear.5 mph71%30.59 "Hg15 mi
5:00 AM-2 °FClear.10 mph71%30.56 "Hg15 mi
4:00 AM0 °FPassing clouds.8 mph71%30.54 "Hg15 mi
3:00 AM1 °FClear.10 mph65%30.53 "Hg15 mi
2:00 AM0 °FClear.8 mph65%30.52 "Hg15 mi
1:00 AM1 °FClear.14 mph65%30.50 "Hg15 mi
12:00 AM1 °FClear.12 mph65%30.47 "Hg15 mi
11:00 PM
Fri, Feb 27
1 °FClear.10 mph65%30.45 "Hg15 mi
10:00 PM3 °FClear.10 mph60%30.44 "Hg15 mi
9:00 PM0 °FClear.5 mph65%30.42 "Hg15 mi
8:00 PM5 °FClear.8 mph60%30.40 "Hg15 mi
7:00 PM7 °FClear.12 mph56%30.39 "Hg15 mi
6:00 PM7 °FClear.9 mph56%30.36 "Hg30 mi
Weather by CustomWeather, © 2015

See weather overviewHow to use our weather pages